Terug naar catalogus

NIMBUS 2 DEB

ActiefSSO
NORAD 59971·DEBRIS·🇺🇸 United States

Gelanceerd May 15, 1966 vanaf Vandenberg Space Force Base

Loading…

Volgende Passages (komende 24 uur)

TLE

VersSource: Space-Track

Epoch: Sep 13, 2026, 12:51 UTC

1 59971U 66040CA  26256.53583079  .00001100  00000-0  20573-2 0  9999
2 59971 100.4256 107.9609 0062374  41.1507 319.4299 13.40807584271167

Volg NIMBUS 2 DEB in realtime met AllMySat

Download on the App Store